Date,TemperatureHighF,TemperatureAvgF,TemperatureLowF,DewpointHighF,DewpointAvgF,DewpointLowF,HumidityHigh,HumidityAvg,HumidityLow,PressureMaxIn,PressureMinIn,WindSpeedMaxMPH,WindSpeedAvgMPH,GustSpeedMaxMPH,PrecipitationSumIn
2013-1-1,54,41,32,39,35,30,95,80,52,30.28,30.15,7,2,9,0.00
2013-1-2,60,41,30,39,33,28,94,76,34,30.24,30.13,8,2,14,0.00
2013-1-3,61,39,25,40,32,24,96,78,41,30.28,30.16,3,1,4,0.00
2013-1-4,62,40,26,41,32,25,96,75,35,30.32,30.19,5,1,8,0.00
2013-1-5,56,41,27,47,37,26,95,86,63,30.32,30.14,7,1,10,0.25
2013-1-6,50,45,38,45,42,36,96,89,79,30.16,30.09,9,2,13,0.19
2013-1-7,54,43,34,44,39,34,98,86,61,30.27,30.13,6,2,8,0.01
2013-1-8,60,47,38,46,40,36,94,80,57,30.21,30.12,7,2,9,0.00
2013-1-9,59,45,34,49,41,32,97,88,60,30.17,30.01,11,2,11,0.01
2013-1-10,50,40,30,40,33,25,97,78,39,30.19,30.03,12,3,15,0.01
2013-1-11,51,37,26,35,29,24,95,76,38,30.27,30.13,9,2,12,0.00
2013-1-12,49,36,27,39,29,23,97,80,37,30.26,30.13,7,1,10,0.00
2013-1-13,48,34,23,31,25,21,94,73,35,30.27,30.13,5,1,8,0.00
2013-1-14,48,34,21,27,23,19,92,68,36,30.42,30.22,8,2,10,0.00
2013-1-15,55,36,23,31,25,20,93,68,26,30.51,30.39,3,1,4,0.00
2013-1-16,64,40,23,38,30,22,95,72,34,30.45,30.26,3,1,3,0.00
2013-1-17,68,43,26,40,32,24,95,70,31,30.28,30.13,3,1,5,0.00
2013-1-18,71,45,26,37,31,24,96,66,22,30.25,30.10,7,1,9,0.00
2013-1-19,70,46,26,38,31,25,95,64,22,30.27,30.13,5,1,7,0.00
2013-1-20,69,43,26,40,32,24,95,70,23,30.25,30.09,6,1,8,0.00
2013-1-21,71,45,26,40,32,24,94,68,21,30.21,30.07,5,1,6,0.00
2013-1-22,71,45,27,38,31,22,95,65,16,30.16,30.04,5,1,8,0.00
2013-1-23,60,48,40,46,38,32,86,70,43,30.09,30.00,7,1,11,0.00
2013-1-24,56,51,47,54,50,45,97,94,85,30.17,30.05,3,1,5,0.56
2013-1-25,62,55,50,56,52,49,98,91,76,30.17,30.02,8,2,9,0.03
2013-1-26,62,53,47,56,49,40,98,88,72,30.04,29.93,7,2,7,0.00
2013-1-27,55,45,35,41,36,32,95,74,46,30.15,30.03,8,2,12,0.00
2013-1-28,55,42,29,40,35,28,97,78,51,30.28,30.14,8,2,15,0.00
2013-1-29,55,44,31,42,38,30,97,81,58,30.33,30.23,10,2,10,0.00
2013-1-30,65,48,33,44,39,31,95,75,45,30.37,30.24,4,1,7,0.00
2013-1-31,71,48,31,47,40,30,96,78,40,30.30,30.14,3,1,5,0.00